Location: Pinon Hills
(34.4429°N, 117.6403°W)
Time: 23:21:48
(UTC-07:00)

Amateur Radio Satellites - All Passes

Search period start: 21 September 2017 22:51
Search period end: 22 September 2017 22:51
Location: Pinon Hills, 34.4429°N, 117.6403°W

Satellite Date Start Highest point End Downlink Frequencies (MHz)
Time Altitude Azimuth
LO-87 21 Sep 23:03:16 23:06:40 48° 75° (ENE) 23:10:04 145.935 - 145.965
PRISM 21 Sep 23:09:08 23:13:12 86° 98° (E) 23:17:16 437.425
UNISAT 6 21 Sep 23:09:30 23:14:00 49° 286° (WNW) 23:18:31 437.425
SRMSAT 21 Sep 23:16:57 23:20:47 18° 174° (S) 23:24:37 437.500
TIGRISAT 21 Sep 23:34:11 23:38:12 29° 289° (WNW) 23:42:14 435.000
ESTCUBE 1 21 Sep 23:38:53 23:43:24 89° 225° (SW) 23:47:58 437.505/2401.250
FO-29 21 Sep 23:43:19 23:45:39 13° 295° (WNW) 23:48:04 435.910
NANOSAT C BR1 21 Sep 23:43:54 23:45:46 13° 93° (E) 23:47:39 145.865
JUGNU 21 Sep 23:45:28 23:48:15 14° 193° (SSW) 23:51:03 437.505
YUBILEINY 22 Sep 00:02:51 00:11:36 79° 83° (E) 00:20:23 435.215
SO-50 22 Sep 00:07:40 00:12:17 76° 243° (WSW) 00:16:56 436.795
DUCHIFAT 1 22 Sep 00:12:04 00:15:34 24° 96° (E) 00:19:03 145.980
VELOX 1 22 Sep 00:17:00 00:21:06 40° 73° (ENE) 00:25:12 145.980
POLYITAN 1 22 Sep 00:22:18 00:26:24 43° 99° (E) 00:30:29 437.675
EO-79 22 Sep 00:27:07 00:31:16 49° 100° (E) 00:35:25 145.935-145.965
SPROUT 22 Sep 00:31:07 00:35:20 83° 75° (ENE) 00:39:35 437.525
AIST 2D 22 Sep 00:31:28 00:34:43 36° 286° (WNW) 00:37:57 435.315
PCSat 22 Sep 00:36:53 00:42:16 63° 62° (ENE) 00:47:37 145.827
QB50P2 22 Sep 00:39:54 00:44:12 82° 100° (E) 00:48:29 145.880/145.840
50 SAT 22 Sep 00:52:14 00:55:02 26° 73° (ENE) 00:57:50 437.505
BUGSAT 1 22 Sep 00:55:33 00:58:36 19° 95° (E) 01:01:39 437.445
M-CUBED/EXP-1 PRIME 22 Sep 00:59:52 01:02:28 21° 101° (ESE) 01:05:01 437.505
SRMSAT 22 Sep 01:05:17 01:09:15 19° 184° (S) 01:13:13 437.500
NANOSAT C BR1 22 Sep 01:17:36 01:21:38 43° 287° (WNW) 01:25:40 145.865
Gurwin Techsat 1B 22 Sep 01:28:07 01:30:53 14° 92° (E) 01:33:39 435.225
UKube-1 22 Sep 01:29:10 01:33:13 41° 73° (ENE) 01:37:15 .
DX 1 22 Sep 01:31:46 01:36:05 74° 77° (ENE) 01:40:26 434.975-435.025
DUCHIFAT 1 22 Sep 01:47:45 01:51:04 23° 290° (WNW) 01:54:23 145.980
VELOX 1 22 Sep 01:55:11 01:57:40 15° 266° (W) 02:00:08 145.980
Oscar 19 22 Sep 01:56:40 02:01:35 44° 99° (E) 02:06:27 437.125/150
POLYITAN 1 22 Sep 01:59:35 02:01:45 14° 293° (WNW) 02:03:55 437.675
YUBILEINY 22 Sep 02:02:07 02:07:18 18° 280° (W) 02:12:30 435.215
EO-79 22 Sep 02:04:56 02:06:33 12° 294° (WNW) 02:08:10 145.935-145.965
O/OREOS (USA 219) 22 Sep 02:15:53 02:19:58 36° 104° (ESE) 02:24:07 437.305
PCSat 22 Sep 02:22:20 02:25:03 14° 257° (WSW) 02:27:45 145.827
MOZHAYETS 4 22 Sep 02:25:02 02:28:10 18° 68° (ENE) 02:31:19
50 SAT 22 Sep 02:26:17 02:27:31 12° 266° (W) 02:28:46 437.505
BUGSAT 1 22 Sep 02:30:18 02:33:54 28° 289° (WNW) 02:37:31 437.445
M-CUBED/EXP-1 PRIME 22 Sep 02:34:53 02:36:43 14° 296° (WNW) 02:38:32 437.505
ITUPSAT 1 22 Sep 02:35:49 02:39:42 25° 69° (ENE) 02:43:36 437.325
SRMSAT 22 Sep 02:55:18 02:57:41 12° 194° (SSW) 03:00:05 437.500
Gurwin Techsat 1B 22 Sep 03:05:56 03:11:08 58° 287° (WNW) 03:16:20 435.225
UKube-1 22 Sep 03:07:13 03:09:22 14° 266° (W) 03:11:31 .
Tancredo 1 22 Sep 03:07:52 03:10:32 62° 41° (NE) 03:13:12 437.200
BEESAT 22 Sep 03:12:47 03:17:29 66° 75° (ENE) 03:22:14 436.000
nSIGHT-1 22 Sep 03:28:32 03:30:50 18° 32° (NNE) 03:33:07 .
Oscar 19 22 Sep 03:36:57 03:40:31 19° 294° (WNW) 03:44:04 437.125/150
AO-7 22 Sep 03:48:37 03:56:27 44° 101° (E) 04:04:13 .
O/OREOS (USA 219) 22 Sep 03:56:25 03:59:29 18° 300° (WNW) 04:02:34 437.305
MOZHAYETS 4 22 Sep 04:00:45 04:05:00 36° 262° (W) 04:09:17
ITUPSAT 1 22 Sep 04:13:20 04:17:22 27° 263° (W) 04:21:27 437.325
RS-15 22 Sep 04:14:16 04:24:12 31° 103° (ESE) 04:34:12 29.354- 29.394
ISS 22 Sep 04:21:15 04:24:27 49° 39° (NE) 04:27:39 437.550
CUBESAT XI-V 22 Sep 04:21:45 04:26:26 70° 75° (ENE) 04:31:07 437.345
KKS-1 22 Sep 04:33:55 04:37:48 31° 71° (ENE) 04:41:43 437.445
BEESAT 3 22 Sep 04:36:22 04:39:17 19° 52° (NE) 04:42:09 437.485
ITAMSAT 1 22 Sep 04:36:27 04:41:40 84° 284° (WNW) 04:46:53 435.822/435.867
STARS 22 Sep 05:03:34 05:07:10 26° 70° (ENE) 05:10:46 437.465
nSIGHT-1 22 Sep 05:04:11 05:07:18 43° 227° (SW) 05:10:23 .
DOVE 4 22 Sep 05:30:28 05:34:13 29° 98° (E) 05:38:06 437.250
AO-85 22 Sep 05:33:22 05:37:23 31° 56° (NE) 05:41:41 145.980
AO-7 22 Sep 05:41:37 05:48:58 37° 297° (WNW) 05:56:19 .
ISS 22 Sep 05:59:15 06:00:35 12° 234° (SW) 06:01:55 437.550
KKS-1 22 Sep 06:11:14 06:14:22 19° 265° (W) 06:17:30 437.445
CUTE-I 22 Sep 06:13:07 06:17:06 21° 95° (E) 06:21:06 437.470
BEESAT 3 22 Sep 06:13:25 06:16:50 29° 248° (WSW) 06:20:13 437.485
BEESAT 2 22 Sep 06:16:10 06:20:13 77° 61° (ENE) 06:24:11 435.950
XW-2D 22 Sep 06:21:23 06:24:44 28° 97° (E) 06:28:01 145.860 - 145.880
RS-15 22 Sep 06:23:30 06:35:41 70° 302° (WNW) 06:48:03 29.354- 29.394
XW-2B 22 Sep 06:33:28 06:37:04 39° 99° (E) 06:40:37 145.730 - 145.750
XW-2F 22 Sep 06:34:52 06:38:26 39° 99° (E) 06:41:57 145.980 - 146.000
STARS 22 Sep 06:40:01 06:43:24 22° 264° (W) 06:46:49 437.465
STRAND 1 22 Sep 06:48:23 06:52:44 29° 69° (ENE) 06:57:06 437.568
HO-68 22 Sep 06:52:47 06:57:58 21° 94° (E) 07:03:08 435.675
CUTE 1.7 + AOD 2 22 Sep 06:53:57 06:55:40 12° 92° (E) 06:57:23 437.475
XW-2C 22 Sep 06:54:32 06:58:22 83° 102° (ESE) 07:02:08 145.795 - 145.815
NUDT-PHONESAT 22 Sep 07:03:38 07:07:21 74° 101° (E) 07:11:02 437.300
LilacSat-2 22 Sep 07:04:51 07:08:40 65° 283° (WNW) 07:12:25 437.200
CUBEBUG 2 22 Sep 07:06:45 07:07:41 10° 91° (E) 07:08:37 437.445
DOVE 4 22 Sep 07:08:43 07:11:43 19° 290° (WNW) 07:14:48 437.250
AO-85 22 Sep 07:13:55 07:17:40 25° 248° (WSW) 07:21:38 145.980
KAITUO 1B 22 Sep 07:29:35 07:33:10 44° 285° (WNW) 07:36:42 145.475/437.950
XW-2A 22 Sep 07:44:28 07:46:49 17° 95° (E) 07:49:08 145.665 - 145.685
CUTE-I 22 Sep 07:52:17 07:57:13 40° 289° (WNW) 08:02:09 437.470
XW-2D 22 Sep 07:56:23 07:58:37 15° 291° (WNW) 08:00:50 145.860 - 145.880
SEEDS 22 Sep 08:02:40 08:06:45 52° 99° (E) 08:10:48 437.485
AO-73 22 Sep 08:05:39 08:07:39 13° 92° (E) 08:09:39 145.935
FO-29 22 Sep 08:06:20 08:10:18 19° 68° (ENE) 08:14:03 435.910
ZACube-1 22 Sep 08:06:53 08:09:34 15° 93° (E) 08:12:15 437.345
XW-2B 22 Sep 08:09:38 08:10:49 11° 292° (WNW) 08:12:00 145.730 - 145.750
XW-2F 22 Sep 08:10:56 08:12:08 11° 293° (WNW) 08:13:19 145.980 - 146.000
STRAND 1 22 Sep 08:27:34 08:31:49 27° 264° (W) 08:36:06 437.568
CUTE 1.7 + AOD 2 22 Sep 08:27:40 08:31:40 43° 286° (WNW) 08:35:39 437.475
AAUSAT CUBESAT 2 22 Sep 08:30:18 08:34:15 46° 99° (E) 08:38:11 437.432
HO-68 22 Sep 08:38:59 08:46:03 62° 289° (WNW) 08:53:06 435.675
CUBEBUG 2 22 Sep 08:39:55 08:44:35 64° 284° (WNW) 08:49:16 437.445
RS-15 22 Sep 08:42:03 08:50:57 22° 328° (NNW) 08:59:51 29.354- 29.394
UWE-3 22 Sep 08:50:10 08:54:52 86° 280° (W) 08:59:31 435.000/436.395/437.385
TIGRISAT 22 Sep 08:54:46 08:56:38 13° 66° (ENE) 08:58:29 435.000
XW-2A 22 Sep 09:16:55 09:19:24 19° 289° (WNW) 09:21:53 145.665 - 145.685
AO-73 22 Sep 09:39:40 09:44:05 49° 286° (WNW) 09:48:28 145.935
Oscar 11 22 Sep 09:40:32 09:44:51 70° 284° (WNW) 09:49:09 .
SEEDS 22 Sep 09:40:58 09:41:55 11° 294° (WNW) 09:42:52 437.485
ZACube-1 22 Sep 09:41:39 09:45:59 42° 286° (WNW) 09:50:15 437.345
FO-29 22 Sep 09:49:25 09:55:08 46° 260° (W) 10:00:20 435.910
PRISM 22 Sep 09:54:43 09:58:28 35° 73° (ENE) 10:02:12 437.425
Max Valier Satellite 22 Sep 10:01:49 10:05:03 27° 97° (E) 10:08:14 145.860
UNISAT 6 22 Sep 10:04:20 10:08:38 87° 261° (W) 10:13:03 437.425
AAUSAT CUBESAT 2 22 Sep 10:07:50 10:09:15 12° 293° (WNW) 10:10:39 437.432
DELFI C3 22 Sep 10:12:58 10:16:49 56° 100° (E) 10:20:38 145.870
TIGRISAT 22 Sep 10:28:41 10:32:48 48° 260° (W) 10:37:04 435.000
AIST 2D 22 Sep 11:01:40 11:04:58 37° 75° (ENE) 11:08:17 435.315
DUCHIFAT 1 22 Sep 11:02:11 11:03:41 12° 66° (ENE) 11:05:09 145.980
EO-88 22 Sep 11:05:35 11:09:08 49° 285° (WNW) 11:12:39 145.990 - 145.960
RS-15 22 Sep 11:05:44 11:10:36 13° 5° (N) 11:15:25 29.354- 29.394
YUBILEINY 22 Sep 11:06:56 11:11:55 17° 80° (E) 11:16:52 435.215
POLYITAN 1 22 Sep 11:11:54 11:15:00 20° 69° (ENE) 11:18:08 437.675
EO-79 22 Sep 11:16:24 11:19:42 23° 70° (ENE) 11:23:01 145.935-145.965
QB50P2 22 Sep 11:28:51 11:32:42 36° 73° (ENE) 11:36:34 145.880/145.840
PRISM 22 Sep 11:31:34 11:33:48 14° 266° (W) 11:36:02 437.425
ESTCUBE 1 22 Sep 11:35:27 11:39:07 24° 96° (E) 11:42:46 437.505/2401.250
Max Valier Satellite 22 Sep 11:36:21 11:38:36 15° 291° (WNW) 11:40:50 145.860
M-CUBED/EXP-1 PRIME 22 Sep 11:41:44 11:45:02 22° 66° (ENE) 11:48:12 437.505
NANOSAT C BR1 22 Sep 12:05:24 12:09:34 83° 77° (ENE) 12:13:47 145.865
LO-87 22 Sep 12:06:25 12:10:01 76° 284° (WNW) 12:13:38 145.935 - 145.965
SPROUT 22 Sep 12:21:07 12:24:05 18° 95° (E) 12:27:02 437.525
O/OREOS (USA 219) 22 Sep 12:29:06 12:33:26 39° 66° (ENE) 12:37:45 437.305
DUCHIFAT 1 22 Sep 12:34:50 12:38:51 48° 260° (W) 12:42:55 145.980
Gurwin Techsat 1B 22 Sep 12:45:44 12:49:06 17° 65° (ENE) 12:52:29 435.225
POLYITAN 1 22 Sep 12:47:03 12:50:35 26° 263° (W) 12:54:10 437.675
EO-79 22 Sep 12:51:58 12:55:19 23° 264° (W) 12:58:42 145.935-145.965
YUBILEINY 22 Sep 12:58:49 13:07:33 81° 276° (W) 13:16:17 435.215
QB50P2 22 Sep 13:06:11 13:08:34 15° 266° (W) 13:10:57 145.880/145.840
Oscar 19 22 Sep 13:09:49 13:14:44 45° 72° (ENE) 13:19:41 437.125/150
ESTCUBE 1 22 Sep 13:12:08 13:15:47 25° 290° (WNW) 13:19:26 437.505/2401.250
M-CUBED/EXP-1 PRIME 22 Sep 13:15:27 13:19:15 28° 257° (WSW) 13:22:52 437.505
BUGSAT 1 22 Sep 13:15:36 13:19:34 66° 259° (W) 13:23:35 437.445
RS-15 22 Sep 13:19:04 13:29:11 30° 40° (NE) 13:38:47 29.354- 29.394
NO-84 22 Sep 13:20:06 13:24:03 74° 311° (NW) 13:27:42 435.350 FM
DX 1 22 Sep 13:24:35 13:27:20 16° 95° (E) 13:30:04 434.975-435.025
PCSat 22 Sep 13:34:59 13:37:17 13° 103° (ESE) 13:39:35 145.827
VELOX 1 22 Sep 13:46:19 13:50:39 60° 285° (WNW) 13:54:57 145.980
50 SAT 22 Sep 13:47:37 13:50:45 39° 99° (E) 13:53:53 437.505
SPROUT 22 Sep 13:56:11 13:59:58 31° 288° (WNW) 14:03:44 437.525
O/OREOS (USA 219) 22 Sep 14:09:41 14:12:27 16° 261° (W) 14:15:14 437.305
ITAMSAT 1 22 Sep 14:15:53 14:17:12 11° 62° (ENE) 14:18:31 435.822/435.867
SO-50 22 Sep 14:18:15 14:22:45 82° 115° (ESE) 14:27:14 436.795
Gurwin Techsat 1B 22 Sep 14:23:26 14:28:34 51° 259° (W) 14:33:45 435.225
AO-7 22 Sep 14:43:38 14:51:24 45° 65° (ENE) 14:59:09 .
Oscar 19 22 Sep 14:50:44 14:54:12 18° 266° (W) 14:57:42 437.125/150
UKube-1 22 Sep 14:55:06 14:59:22 63° 285° (WNW) 15:03:36 .
DX 1 22 Sep 14:59:38 15:03:34 34° 288° (WNW) 15:07:29 434.975-435.025
YUBILEINY 22 Sep 15:01:57 15:05:40 13° 295° (WNW) 15:09:25 435.215
PCSat 22 Sep 15:14:38 15:20:00 68° 297° (WNW) 15:25:26 145.827
BEESAT 22 Sep 15:17:07 15:20:50 22° 96° (E) 15:24:31 436.000
RS-15 22 Sep 15:31:09 15:43:03 82° 244° (WSW) 15:54:15 29.354- 29.394
ITAMSAT 1 22 Sep 15:50:47 15:55:56 79° 257° (WSW) 16:01:08 435.822/435.867
MOZHAYETS 4 22 Sep 15:58:46 16:03:24 67° 101° (ESE) 16:07:59
SO-50 22 Sep 16:02:37 16:03:45 11° 315° (NW) 16:04:54 436.795
ITUPSAT 1 22 Sep 16:16:21 16:21:11 83° 284° (WNW) 16:26:00 437.325
CUBESAT XI-V 22 Sep 16:22:35 16:26:12 22° 95° (E) 16:29:47 437.345
DOVE 4 22 Sep 16:33:07 16:36:25 21° 71° (ENE) 16:39:38 437.250
AO-7 22 Sep 16:36:41 16:44:08 36° 261° (W) 16:51:38 .
BEESAT 22 Sep 16:54:21 16:58:34 32° 290° (WNW) 17:02:46 436.000
XW-2B 22 Sep 17:12:50 17:14:29 12° 68° (ENE) 17:16:09 145.730 - 145.750
XW-2F 22 Sep 17:13:54 17:15:26 12° 68° (ENE) 17:16:59 145.980 - 146.000
HO-68 22 Sep 17:22:04 17:23:37 11° 55° (NE) 17:25:10 435.675
CUTE-I 22 Sep 17:31:29 17:35:45 25° 68° (ENE) 17:40:02 437.470
XW-2C 22 Sep 17:32:34 17:35:36 23° 71° (ENE) 17:38:40 145.795 - 145.815
MOZHAYETS 4 22 Sep 17:39:00 17:39:55 11° 296° (WNW) 17:40:50
NUDT-PHONESAT 22 Sep 17:39:47 17:42:28 19° 71° (ENE) 17:45:11 437.300
LilacSat-2 22 Sep 17:42:58 17:46:27 33° 73° (ENE) 17:49:58 437.200
RS-15 22 Sep 17:47:33 17:53:24 15° 263° (W) 17:59:08 29.354- 29.394
CUBESAT XI-V 22 Sep 17:59:33 18:03:30 29° 289° (WNW) 18:07:26 437.345
KKS-1 22 Sep 18:03:58 18:08:25 77° 283° (WNW) 18:12:51 437.445
KAITUO 1B 22 Sep 18:05:24 18:09:00 43° 75° (ENE) 18:12:38 145.475/437.950
JUGNU 22 Sep 18:07:08 18:08:13 10° 164° (SSE) 18:09:19 437.505
DOVE 4 22 Sep 18:10:02 18:13:56 28° 262° (W) 18:17:41 437.250
STARS 22 Sep 18:31:28 18:35:52 84° 101° (E) 18:40:17 437.465
XW-2D 22 Sep 18:32:12 18:35:55 52° 260° (W) 18:39:41 145.860 - 145.880
XW-2B 22 Sep 18:44:43 18:48:17 36° 262° (W) 18:51:52 145.730 - 145.750
XW-2F 22 Sep 18:45:36 18:49:09 37° 262° (W) 18:52:45 145.980 - 146.000
SEEDS 22 Sep 18:51:03 18:54:24 23° 71° (ENE) 18:57:44 437.485
HO-68 22 Sep 19:02:58 19:10:02 70° 72° (ENE) 19:17:09 435.675
STRAND 1 22 Sep 19:03:51 19:06:11 13° 92° (E) 19:08:31 437.568
XW-2C 22 Sep 19:06:53 19:09:41 19° 265° (W) 19:12:30 145.795 - 145.815
CUTE-I 22 Sep 19:10:49 19:15:35 34° 262° (W) 19:20:23 437.470
NUDT-PHONESAT 22 Sep 19:13:14 19:16:10 22° 264° (W) 19:19:08 437.300
CUTE 1.7 + AOD 2 22 Sep 19:15:54 19:20:11 80° 76° (ENE) 19:24:28 437.475
AAUSAT CUBESAT 2 22 Sep 19:17:23 19:20:24 20° 70° (ENE) 19:23:24 437.432
LilacSat-2 22 Sep 19:18:53 19:20:47 13° 267° (W) 19:22:42 437.200
Tancredo 1 22 Sep 19:24:44 19:27:25 86° 317° (NW) 19:30:07 437.200
CUBEBUG 2 22 Sep 19:34:13 19:38:22 67° 76° (ENE) 19:42:41 437.445
XW-2A 22 Sep 19:43:14 19:46:37 69° 77° (ENE) 19:50:01 145.665 - 145.685
UWE-3 22 Sep 19:43:26 19:47:29 46° 74° (ENE) 19:51:41 435.000/436.395/437.385
AO-85 22 Sep 19:45:48 19:48:34 19° 111° (ESE) 19:51:21 145.980
JUGNU 22 Sep 19:52:40 19:56:30 18° 173° (S) 20:00:19 437.505
BEESAT 3 22 Sep 19:58:32 20:02:31 79° 299° (WNW) 20:06:34 437.485
NO-84 22 Sep 19:58:38 19:59:21 11° 33° (NNE) 20:00:04 435.350 FM
BEESAT 2 22 Sep 20:03:57 20:07:27 30° 113° (ESE) 20:11:01 435.950
nSIGHT-1 22 Sep 20:03:58 20:06:44 27° 131° (SE) 20:09:33 .
SEEDS 22 Sep 20:26:30 20:29:56 24° 264° (W) 20:33:23 437.485
AO-73 22 Sep 20:30:53 20:35:10 79° 78° (ENE) 20:39:34 145.935
Oscar 11 22 Sep 20:31:17 20:35:30 54° 75° (ENE) 20:39:46 .
ZACube-1 22 Sep 20:33:08 20:37:23 85° 255° (WSW) 20:41:49 437.345
STRAND 1 22 Sep 20:40:37 20:45:40 60° 286° (WNW) 20:50:44 437.568
AAUSAT CUBESAT 2 22 Sep 20:52:04 20:55:37 27° 263° (W) 20:59:12 437.432
HO-68 22 Sep 20:53:41 20:58:14 18° 267° (W) 21:02:50 435.675
DELFI C3 22 Sep 20:55:21 20:58:11 19° 70° (ENE) 21:01:02 145.870
ISS 22 Sep 20:58:19 21:01:35 69° 319° (NW) 21:04:51 437.550
FO-29 22 Sep 21:01:24 21:05:54 24° 97° (E) 21:10:46 435.910
SRMSAT 22 Sep 21:17:17 21:19:21 12° 166° (SSE) 21:21:26 437.500
UWE-3 22 Sep 21:22:38 21:24:11 12° 269° (W) 21:25:46 435.000/436.395/437.385
AO-85 22 Sep 21:25:25 21:28:44 26° 305° (NW) 21:32:05 145.980
NO-84 22 Sep 21:34:10 21:36:58 48° 231° (SW) 21:39:41 435.350 FM
EO-88 22 Sep 21:39:25 21:42:46 35° 74° (ENE) 21:46:08 145.990 - 145.960
nSIGHT-1 22 Sep 21:40:24 21:43:03 23° 326° (NW) 21:45:42 .
JUGNU 22 Sep 21:40:49 21:44:48 19° 184° (S) 21:48:48 437.505
BEESAT 2 22 Sep 21:42:15 21:45:13 20° 308° (NW) 21:48:12 435.950
UNISAT 6 22 Sep 21:59:39 22:03:38 27° 96° (E) 22:07:34 437.425
Max Valier Satellite 22 Sep 22:09:52 22:13:31 58° 260° (W) 22:17:11 145.860
Oscar 11 22 Sep 22:11:14 22:11:53 10° 268° (W) 22:12:33 .
TIGRISAT 22 Sep 22:23:12 22:27:41 45° 99° (E) 22:32:11 435.000
DELFI C3 22 Sep 22:29:30 22:32:45 24° 264° (W) 22:36:01 145.870
ESTCUBE 1 22 Sep 22:32:21 22:35:02 16° 67° (ENE) 22:37:44 437.505/2401.250
ISS 22 Sep 22:37:59 22:38:34 10° 335° (NNW) 22:39:08 437.550
LO-87 22 Sep 22:39:20 22:42:06 22° 72° (ENE) 22:44:52 145.935 - 145.965
